This is the latest recevied weather packets stored in our database for station/object WE1C. If no packets are shown the sender has not sent any weather packets the latest 10 day(s).
| Time | Temp. | Humidity | Pressure | Rain* | Wind** | Luminosity | Snow |
|---|---|---|---|---|---|---|---|
| 1777868746 | 4.44° C | 66% | 1039.7 hPa | 0 mm | - | 0 W/m² | - |
| 1777868443 | 4.44° C | 66% | 1039.8 hPa | 0 mm | - | 0 W/m² | - |
| 1777868139 | 3.89° C | 66% | 1039.6 hPa | 0 mm | - | 0 W/m² | - |
| 1777867835 | 3.89° C | 68% | 1039.5 hPa | 0 mm | - | 0 W/m² | - |
| 1777867533 | 3.89° C | 67% | 1039.5 hPa | 0 mm | - | 0 W/m² | - |
| 1777867230 | 3.33° C | 69% | 1039.7 hPa | 0 mm | - | 0 W/m² | - |
| 1777866927 | 3.33° C | 69% | 1039.4 hPa | 0 mm | - | 0 W/m² | - |
| 1777866623 | 2.78° C | 70% | 1039.6 hPa | 0 mm | - | 0 W/m² | - |
| 1777866321 | 2.78° C | 69% | 1039.3 hPa | 0 mm | - | 0 W/m² | - |
| 1777866017 | 2.78° C | 69% | 1039.1 hPa | 0 mm | - | 0 W/m² | - |
| 1777865715 | 3.33° C | 66% | 1039.1 hPa | 0 mm | - | 0 W/m² | - |
| 1777865413 | 3.33° C | 65% | 1039.3 hPa | 0 mm | - | 0 W/m² | - |
| 1777865109 | 3.33° C | 66% | 1039.2 hPa | 0 mm | - | 0 W/m² | - |
| 1777864806 | 2.78° C | 69% | 1038.9 hPa | 0 mm | - | 0 W/m² | - |
| 1777864503 | 2.78° C | 68% | 1039.1 hPa | 0 mm | - | 0 W/m² | - |
| 1777864199 | 2.78° C | 70% | 1039.3 hPa | 0 mm | - | 0 W/m² | - |
| 1777863897 | 2.78° C | 71% | 1038.9 hPa | 0 mm | - | 0 W/m² | - |
| 1777863592 | 2.78° C | 72% | 1039.2 hPa | 0 mm | - | 0 W/m² | - |
| 1777863290 | 2.22° C | 72% | 1039.1 hPa | 0 mm | - | 0 W/m² | - |
| 1777862986 | 2.22° C | 73% | 1039.2 hPa | 0 mm | - | 0 W/m² | - |
| 1777862683 | 2.22° C | 74% | 1038.9 hPa | 0 mm | - | 0 W/m² | - |
| 1777862380 | 2.22° C | 75% | 1038.9 hPa | 0 mm | - | 0 W/m² | - |
| 1777862077 | 2.22° C | 74% | 1038.8 hPa | 0 mm | - | 0 W/m² | - |
| 1777861772 | 2.22° C | 74% | 1038.7 hPa | 0 mm | - | 0 W/m² | - |
| 1777861469 | 2.22° C | 75% | 1038.9 hPa | 0 mm | - | 0 W/m² | - |
* Rain latest hour (hover to see other rain measurements)
** Current wind speed in m/s (hover to see current wind gust speed)